Location: Goll?ig?dem
(16.6773°N, 80.7332°E)
Time: 17:15:50
(UTC+00:00)

USA 238 DEB - Pass Details

Date: 19 May 2025
Orbit: 900 x 1311 km, 63.4° (Epoch: 01 June)

Event Time Altitude Azimuth Distance (km) Brightness Sun altitude
Rises 23:21:33 0° 326° (NW) 4,173 6.7 -10.4°
Reaches altitude 10° 23:24:21 10° 322° (NW) 3,245 6.1 -9.8°
Maximum altitude 23:32:00 52° 248° (WSW) 1,571 4.2 -8.1°
Drops below altitude 10° 23:39:51 10° 174° (S) 3,315 6.1 -6.4°
Sets 23:42:46 0° 169° (S) 4,268 6.7 -5.7°
